Content
SEND FEEDBACK

Daily
Averages
Monthly
Summary
United States of America

CASTLE HAYNE, NORTH CAROLINA


Home > North America > United States > North Carolina
Elevation: 35 feet     Latitude: 34 19N     Longitude: 077 55W

WEATHER
 
SELECT A DAY
Number of Records: 208,565;   Date Range: 1/1/95 - 7/7/14
 
SHARE

PRINT THIS DATA

[ ← Previous Day ]
WEATHER ALMANAC - JUNE 19, 2013
[ Next Day → ]
[ °C ]   °F
Weather ElementAverageHighLow
Temperature73.3 °F77 °F (2:53 am)71.1 °F (11:53 pm)
Dewpoint69.9 °F75 °F (2:53 am)64.9 °F (11:53 pm)
Humidity88.9 %94 % (2:53 am)78 % (10:19 pm)
Barometer29.97 in30.10 in (11:53 pm)29.86 in (3:48 am)
Wind Speed7.2 mph13.8 mph (4:24 am)
Wind Gust21.9 mph (3:48 am)
Weather ElementAverage
Visibility8.1 mi
Wind DirectionSSE (146.2 °)

Weather ElementTotal
Precipitation1.64 in
Cooling Degree Days9.1 (Base 65)
Growing Degree Days24.1 (Base 50)
Averaged from 55 records on June 19, 2013
WEATHER CONDITIONS BREAKOUT
WIND DIRECTION BREAKOUT
WEATHER BY HOUR - JUNE 19, 2013
[ °C ]   °F
Local TimeTemperatureDewpointHumidityBarometerVisibilityWind DirectionWind SpeedGust SpeedPrecipitationEventsConditions
1:53 AM75.9 °F73.0 °F91 %29.88 in10.0 miSW (220°)8.1 mphMostly Cloudy
2:53 AM77.0 °F75.0 °F94 %29.87 in10.0 miWSW (250°)6.9 mphMostly Cloudy
3:14 AM75.2 °F73.4 °F94 %29.87 in10.0 miWest (280°)6.9 mphOvercast
3:22 AM75.2 °F73.4 °F94 %29.87 in10.0 miWNW (300°)10.4 mphThunderstormOvercast
3:48 AM75.2 °F71.6 °F89 %29.86 in10.0 miWNW (300°)12.7 mph21.9 mphOvercast
3:53 AM73.9 °F71.1 °F91 %29.86 in10.0 miWNW (290°)11.5 mph0.00 inRainLight Rain
4:24 AM73.4 °F71.6 °F94 %29.87 in3.0 miWest (280°)13.8 mph0.06 inRain-ThunderstormRain
4:31 AM73.4 °F69.8 °F88 %29.87 in2.5 miWest (270°)11.5 mph0.13 inRain-ThunderstormRain
4:45 AM73.4 °F69.8 °F88 %29.87 in6.0 miWest (260°)9.2 mph0.22 inRain-ThunderstormRain
4:53 AM73.0 °F71.1 °F93 %29.87 in5.0 miWest (260°)8.1 mph0.24 inRain-ThunderstormRain
5:07 AM73.4 °F71.6 °F94 %29.87 in5.0 miWest (280°)8.1 mph0.03 inRainLight Rain
5:53 AM73.0 °F71.1 °F93 %29.89 in5.0 miWest (270°)5.8 mph0.17 inRainRain
6:53 AM73.0 °F71.1 °F93 %29.91 in10.0 miWest (280°)6.9 mph0.00 inClear
7:08 AM73.4 °F71.6 °F94 %29.91 in10.0 miWest (280°)4.6 mphScattered Clouds
7:17 AM73.4 °F71.6 °F94 %29.92 in10.0 miWNW (290°)6.9 mphMostly Cloudy
7:53 AM73.9 °F71.1 °F91 %29.94 in10.0 miNW (310°)6.9 mphOvercast
8:27 AM73.4 °F69.8 °F88 %29.94 in10.0 miNorth (350°)8.1 mphOvercast
8:50 AM73.4 °F69.8 °F88 %29.95 in10.0 miNorth (350°)10.4 mphOvercast
8:53 AM73.0 °F70.0 °F90 %29.95 in10.0 miNorth (350°)9.2 mphOvercast
9:07 AM73.4 °F69.8 °F88 %29.95 in10.0 miNorth (350°)5.8 mphOvercast
9:29 AM73.4 °F69.8 °F88 %29.96 in10.0 miNorth (350°)8.1 mphOvercast
9:53 AM73.9 °F69.1 °F85 %29.97 in10.0 miNorth (10°)8.1 mphOvercast
10:06 AM75.2 °F69.8 °F83 %29.98 in10.0 miNNE (20°)9.2 mphOvercast
10:14 AM73.4 °F69.8 °F88 %29.98 in10.0 miNorth (350°)4.6 mphOvercast
10:42 AM73.4 °F69.8 °F88 %29.98 in8.0 miNNE (20°)8.1 mph0.00 inRainLight Rain
10:49 AM73.4 °F69.8 °F88 %29.99 in8.0 miNorth (10°)4.6 mph0.00 inRainLight Rain
10:53 AM73.0 °F69.1 °F87 %29.99 in10.0 miNNE (20°)5.8 mph0.00 inRainLight Rain
11:03 AM73.4 °F69.8 °F88 %29.99 in10.0 miNNE (30°)4.6 mph0.00 inOvercast
11:53 AM73.9 °F69.1 °F85 %30.01 in4.0 miNorth (10°)4.6 mph0.00 inRainRain
12:01 PM73.4 °F69.8 °F88 %30.02 in2.5 miNorth (350°)3.5 mph0.05 inRainRain
12:11 PM71.6 °F69.8 °F94 %30.02 in3.0 miCalm0.07 inRainRain
12:19 PM71.6 °F69.8 °F94 %30.02 in2.0 miCalm0.11 inRainRain
12:40 PM71.6 °F69.8 °F94 %30.02 in5.0 miENE (70°)4.6 mph0.17 inRainLight Rain
12:53 PM73.0 °F70.0 °F90 %30.02 in5.0 miNE (50°)4.6 mph0.18 inRainLight Rain
1:18 PM71.6 °F69.8 °F94 %30.02 in4.0 miNNE (30°)8.1 mph0.01 inRainRain
1:28 PM71.6 °F69.8 °F94 %30.01 in2.5 miNNE (20°)8.1 mph0.03 inRainRain
1:31 PM71.6 °F69.8 °F94 %30.01 in3.0 miNNE (30°)8.1 mph0.04 inRainLight Rain
1:39 PM71.6 °F69.8 °F94 %30.01 in7.0 miNNE (20°)8.1 mph0.04 inRainLight Rain
1:51 PM73.4 °F69.8 °F88 %30.01 in6.0 miNNE (30°)8.1 mph0.04 inRainLight Rain
1:53 PM73.0 °F71.1 °F93 %30.01 in7.0 miNNE (30°)8.1 mph0.04 inRainLight Rain
2:24 PM73.4 °F69.8 °F88 %30.00 in10.0 miNE (50°)6.9 mph0.00 inOvercast
2:31 PM73.4 °F69.8 °F88 %30.00 in10.0 miNE (40°)8.1 mph0.00 inOvercast
2:53 PM73.9 °F70.0 °F87 %30.01 in10.0 miNNE (20°)8.1 mph0.01 inOvercast
3:05 PM73.4 °F69.8 °F88 %30.01 in10.0 miNE (50°)6.9 mphOvercast
3:53 PM73.9 °F69.1 °F85 %30.01 in10.0 miNE (50°)4.6 mphOvercast
4:34 PM75.2 °F69.8 °F83 %30.01 in10.0 miNNE (20°)5.8 mphOvercast
4:45 PM73.4 °F68.0 °F83 %30.01 in10.0 miNE (40°)12.7 mphOvercast
4:53 PM73.0 °F68.0 °F84 %30.01 in10.0 miNE (50°)8.1 mph0.00 inRainLight Rain
8:53 PM72.0 °F68.0 °F87 %30.04 in10.0 miENE (60°)4.6 mphClear
9:53 PM73.0 °F68.0 °F84 %30.07 in10.0 miENE (70°)5.8 mphMostly Cloudy
10:19 PM73.4 °F66.2 °F78 %30.09 in10.0 miENE (60°)5.8 mphMostly Cloudy
10:44 PM71.6 °F66.2 °F83 %30.09 in10.0 miENE (70°)8.1 mphMostly Cloudy
10:53 PM72.0 °F66.9 °F84 %30.09 in10.0 miENE (70°)6.9 mphOvercast
11:14 PM71.6 °F66.2 °F83 %30.09 in10.0 miENE (60°)6.9 mphMostly Cloudy
11:53 PM71.1 °F64.9 °F81 %30.10 in10.0 miENE (60°)6.9 mphScattered Clouds
Hourly data recorded from KILM, located miles away from Castle Hayne, North Carolina







STORIES FROM OUR PARTNERS